Regional Weather Roundup
Issued by NWS

Home | Current Version | Previous Version | Graphics & Text | Print | Product List | Glossary On
Versions: 1 2 3 4 5 6 7 8 9 10 11 12 13 14 15 16 17 18 19 20 21 22 23 24 25 26 27 28 29 30 31 32 33 34 35 36 37 38 39 40 41 42 43 44 45 46 47 48 49 50
036
ASUS43 KIND 211400
RWRIN

WEATHER ROUNDUP FOR INDIANA
NATIONAL WEATHER SERVICE INDIANAPOLIS IN
1000 AM EDT THU SEP 21 2017

NOTE: "FAIR" INDICATES FEW OR NO CLOUDS BELOW 12,000 FEET WITH NO
SIGNIFICANT WEATHER AND/OR OBSTRUCTIONS TO VISIBILITY.

* - STATION DOES NOT REPORT WEATHER SUCH AS PRECIPITATION OR FOG.

+ - STATION NOT QUALITY CONTROLLED BY THE NATIONAL WEATHER SERVICE.
    USE DATA WITH CAUTION...ESPECIALLY DEWPOINT AND RELATIVE
    HUMIDITY OBSERVATIONS.

INZ001>003-010>013-019-020-211500-
NORTHWEST INDIANA

CITY           SKY/WX    TMP DP  RH WIND       PRES   REMARKS
GARY /AIRPORT/ MOSUNNY   75  70  83 SW3       30.05R
KNOX *+        SUNNY     73  70  88 S7        30.05R

$$

LMZ046-743>745-211500-
SOUTHERN LAKE MICHIGAN

STATION/POSITION TIME  TEMP    WIND        PRES    WAVE
                       AIR SEA DIR/SP/G            HT
                 (UTC) (F)     (DEG/KT/KT) (MB)    (FT)
BURNS HARBOR     1340   77     200/  8/ 10 1017.3R
MICHIGAN CITY    1330   74     180/  7/  8   N/A
5NW MICH CITY    1350   71 69  170/  6/  6   N/A     1

$$

INZ004-005-014>016-021>024-211500-
NORTH CENTRAL INDIANA

CITY           SKY/WX    TMP DP  RH WIND       PRES   REMARKS
ELKHART        SUNNY     75  70  83 S7        30.06
GOSHEN         SUNNY     78  70  76 S8        30.06R
SOUTH BEND     SUNNY     75  71  87 S6        30.06R
WARSAW +       MOSUNNY   75  72  88 CALM      30.08R

$$

INZ006>009-017-018-025>027-211500-
NORTHEAST INDIANA

CITY           SKY/WX    TMP DP  RH WIND       PRES   REMARKS
AUBURN +       SUNNY     77  70  78 S5        30.09R
FORT WAYNE     PTSUNNY   76  70  82 SW8       30.09R
KENDALLVILLE + SUNNY     77  72  86 S5        30.08S

$$

INZ028-029-035-036-043>045-051>053-211500-
WEST CENTRAL INDIANA

CITY           SKY/WX    TMP DP  RH WIND       PRES   REMARKS
LAFAYETTE      CLOUDY    76  72  87 S3        30.06R
TERRE HAUTE    SUNNY     75  70  84 S5        30.09R

$$

INZ030>032-037>040-046>048-054>057-064-065-211500-
CENTRAL INDIANA

CITY           SKY/WX    TMP DP  RH WIND       PRES   REMARKS
ANDERSON       SUNNY     75  72  88 S6        30.11
COLUMBUS       PTSUNNY   73  68  83 CALM      30.11R
GREENWOOD *+   PTSUNNY   78  73  84 SE3       30.11R
INDIANAPOLIS   PTSUNNY   76  71  85 S5        30.10R
-EAGLE CREEK   CLOUDY    76  70  82 S5        30.10R
KOKOMO +       SUNNY     76  72  87 S9        30.09S
MT COMFORT *+    N/A    N/A N/A N/A MISG        N/A
SHELBYVILLE    SUNNY     78  70  76 S6        30.10R

$$

INZ033-034-041-042-049-050-058-059-211500-
EAST CENTRAL INDIANA

CITY           SKY/WX    TMP DP  RH WIND       PRES   REMARKS
MUNCIE         SUNNY     80  70  71 SW5       30.10R
RICHMOND +     LGT RAIN  73  70  88 S5        30.13S

$$

INZ060-061-067>069-081>083-085>088-211500-
SOUTHWEST INDIANA

CITY           SKY/WX    TMP DP  RH WIND       PRES   REMARKS
EVANSVILLE     MOSUNNY   74  71  91 NE5       30.09R
HUNTINGBURG +    N/A    N/A N/A N/A MISG        N/A

$$

INZ062-063-066-070>080-084-089>092-211500-
SOUTH CENTRAL AND SOUTHEAST INDIANA

CITY           SKY/WX    TMP DP  RH WIND       PRES   REMARKS
BLOOMINGTON    MOSUNNY   79  70  74 SE3       30.11R
MADISON *+     SUNNY     75  70  83 CALM      30.13S
SEYMOUR +      SUNNY     77  70  78 CALM      30.10R

$$





USA.gov is the U.S. government's official web portal to all federal, state and local government web resources and services.